TSC464 CYHZ-TXKF

Flight info

Callsign TSC464
Flight time 1h 52m
Altitude 38000
Route CYHZ4/05 KEVLU DCT ELERI/M077F380 DCT AVAST DCT ANVER MOMOM1
Aircraft A20N/M-SDE2E3FGHIRWXY/LB1

Departure

Time 2026-04-25 00:48
Airport Halifax / Stanfield International Airport (CYHZ)

Arrival

Time 2026-04-25 02:40
Airport L.F. Wade International Airport (TXKF)
Time Latitude Longitude Altitude Speed Heading
2026-04-25 00:24 44.88852 -63.51433 456 ft 0 kts 262°
2026-04-25 00:36 44.88852 -63.51431 456 ft 1 kts 262°
2026-04-25 00:36 44.88854 -63.51417 456 ft 1 kts 262°
2026-04-25 00:37 44.88855 -63.51403 454 ft 1 kts 262°
2026-04-25 00:37 44.88856 -63.51389 455 ft 1 kts 262°
2026-04-25 00:37 44.88858 -63.51374 455 ft 1 kts 262°
2026-04-25 00:37 44.88859 -63.51360 456 ft 1 kts 262°
2026-04-25 00:38 44.88861 -63.51346 456 ft 1 kts 262°
2026-04-25 00:38 44.88862 -63.51332 456 ft 1 kts 262°
2026-04-25 00:38 44.88863 -63.51318 454 ft 1 kts 262°
2026-04-25 00:38 44.88864 -63.51316 454 ft 0 kts 262°
2026-04-25 00:42 44.88861 -63.51325 455 ft 1 kts 239°
2026-04-25 00:42 44.88856 -63.51324 456 ft 0 kts 187°
2026-04-25 00:42 44.88851 -63.51317 453 ft 2 kts 142°
2026-04-25 00:42 44.88817 -63.51284 454 ft 10 kts 151°
2026-04-25 00:43 44.88727 -63.51247 456 ft 17 kts 165°
2026-04-25 00:43 44.88586 -63.51214 457 ft 24 kts 171°
2026-04-25 00:43 44.88415 -63.51216 457 ft 24 kts 213°
2026-04-25 00:43 44.88263 -63.51374 457 ft 30 kts 217°
2026-04-25 00:44 44.88084 -63.51556 458 ft 34 kts 216°
2026-04-25 00:44 44.87880 -63.51754 459 ft 37 kts 205°
2026-04-25 00:44 44.87667 -63.51969 459 ft 39 kts 208°
2026-04-25 00:44 44.87436 -63.52193 458 ft 42 kts 219°
2026-04-25 00:45 44.87201 -63.52434 460 ft 42 kts 217°
2026-04-25 00:45 44.86969 -63.52650 461 ft 36 kts 214°
2026-04-25 00:45 44.86838 -63.52795 461 ft 36 kts 226°
2026-04-25 00:45 44.86654 -63.52870 461 ft 21 kts 122°
2026-04-25 00:46 44.86640 -63.52839 461 ft 0 kts 122°
2026-04-25 00:46 44.86638 -63.52835 461 ft 2 kts 122°
2026-04-25 00:46 44.86600 -63.52730 460 ft 9 kts 94°
2026-04-25 00:47 44.86634 -63.52670 459 ft 8 kts 33°
2026-04-25 00:47 44.86672 -63.52627 457 ft 32 kts 37°
2026-04-25 00:47 44.87093 -63.52224 460 ft 111 kts 34°
2026-04-25 00:47 44.87897 -63.51436 463 ft 167 kts 36°
2026-04-25 00:48 44.88787 -63.50463 1389 ft 155 kts 34°
2026-04-25 00:48 44.89616 -63.49544 2467 ft 148 kts 32°
2026-04-25 00:48 44.90406 -63.48658 3415 ft 141 kts 31°
2026-04-25 00:48 44.91154 -63.47806 4185 ft 140 kts 32°
2026-04-25 00:49 44.91937 -63.46830 4607 ft 161 kts 36°
2026-04-25 00:49 44.92773 -63.45632 5037 ft 186 kts 52°
2026-04-25 00:49 44.93116 -63.43747 5470 ft 217 kts 89°
2026-04-25 00:49 44.92598 -63.41637 5875 ft 243 kts 124°
2026-04-25 00:50 44.91268 -63.40042 6279 ft 263 kts 158°
2026-04-25 00:50 44.89483 -63.39570 6965 ft 263 kts 189°
2026-04-25 00:50 44.87783 -63.40369 7759 ft 258 kts 218°
2026-04-25 00:50 44.86592 -63.42198 8487 ft 255 kts 248°
2026-04-25 00:51 44.86163 -63.44570 9192 ft 255 kts 270°
2026-04-25 00:51 44.86012 -63.47098 9903 ft 263 kts 264°
2026-04-25 00:51 44.85516 -63.49671 10269 ft 286 kts 250°
2026-04-25 00:51 44.84520 -63.52243 10562 ft 312 kts 238°
2026-04-25 00:52 44.83159 -63.54752 10925 ft 333 kts 232°
2026-04-25 00:52 44.81600 -63.57254 11451 ft 345 kts 230°
2026-04-25 00:52 44.79969 -63.59768 12195 ft 351 kts 229°
2026-04-25 00:52 44.78303 -63.62330 12912 ft 358 kts 229°
2026-04-25 00:53 44.76619 -63.64942 13682 ft 362 kts 228°
2026-04-25 00:53 44.74920 -63.67591 14364 ft 367 kts 228°
2026-04-25 00:53 44.73203 -63.70279 15054 ft 371 kts 228°
2026-04-25 00:53 44.71467 -63.72998 15732 ft 376 kts 227°
2026-04-25 00:54 44.69710 -63.75749 16408 ft 380 kts 227°
2026-04-25 00:54 44.67932 -63.78531 17073 ft 384 kts 227°
2026-04-25 00:54 44.66132 -63.81344 17673 ft 391 kts 227°
2026-04-25 00:54 44.64305 -63.84197 18294 ft 395 kts 226°
2026-04-25 00:55 44.62458 -63.87077 18856 ft 399 kts 226°
2026-04-25 00:55 44.60593 -63.89984 19429 ft 403 kts 226°
2026-04-25 00:55 44.58711 -63.92913 19979 ft 407 kts 226°
2026-04-25 00:55 44.56807 -63.95873 20526 ft 411 kts 226°
2026-04-25 00:56 44.54882 -63.98863 21067 ft 415 kts 225°
2026-04-25 00:56 44.52940 -64.01877 21639 ft 418 kts 225°
2026-04-25 00:56 44.50988 -64.04903 22185 ft 422 kts 225°
2026-04-25 00:56 44.49008 -64.07969 22713 ft 426 kts 225°
2026-04-25 00:57 44.47016 -64.11051 23239 ft 430 kts 224°
2026-04-25 00:57 44.44991 -64.14167 23695 ft 433 kts 223°
2026-04-25 00:57 44.42683 -64.16825 24152 ft 428 kts 207°
2026-04-25 00:57 44.40009 -64.18558 24566 ft 423 kts 192°
2026-04-25 00:58 44.37132 -64.19317 24955 ft 421 kts 181°
2026-04-25 00:58 44.34195 -64.19599 25283 ft 425 kts 179°
2026-04-25 00:58 44.31226 -64.19798 25662 ft 429 kts 180°
2026-04-25 00:58 44.28230 -64.20031 26036 ft 433 kts 181°
2026-04-25 00:59 44.25245 -64.20312 26403 ft 438 kts 181°
2026-04-25 00:59 44.22201 -64.20636 26809 ft 440 kts 182°
2026-04-25 00:59 44.19124 -64.20981 27139 ft 445 kts 183°
2026-04-25 00:59 44.16031 -64.21332 27426 ft 450 kts 184°
2026-04-25 01:00 44.12888 -64.21688 27701 ft 455 kts 184°
2026-04-25 01:00 44.09729 -64.22049 28079 ft 457 kts 184°
2026-04-25 01:00 44.06534 -64.22414 28366 ft 461 kts 185°
2026-04-25 01:00 44.03322 -64.22782 28689 ft 465 kts 185°
2026-04-25 01:01 44.00095 -64.23150 28994 ft 468 kts 185°
2026-04-25 01:01 43.96839 -64.23520 29279 ft 471 kts 186°
2026-04-25 01:01 43.93546 -64.23891 29425 ft 477 kts 186°
2026-04-25 01:01 43.90224 -64.24267 29744 ft 480 kts 186°
2026-04-25 01:02 43.86884 -64.24645 30025 ft 483 kts 186°
2026-04-25 01:02 43.83528 -64.25025 30305 ft 485 kts 186°
2026-04-25 01:02 43.80158 -64.25406 30583 ft 487 kts 186°
2026-04-25 01:02 43.76773 -64.25789 30865 ft 489 kts 186°
2026-04-25 01:03 43.73389 -64.26171 31256 ft 488 kts 186°
2026-04-25 01:03 43.70005 -64.26552 31593 ft 488 kts 186°
2026-04-25 01:03 43.66626 -64.26932 31939 ft 488 kts 186°
2026-04-25 01:03 43.63246 -64.27313 32282 ft 487 kts 186°
2026-04-25 01:04 43.59866 -64.27693 32611 ft 487 kts 186°
2026-04-25 01:04 43.56487 -64.28073 32916 ft 487 kts 187°
2026-04-25 01:04 43.53104 -64.28453 33199 ft 488 kts 187°
2026-04-25 01:04 43.49724 -64.28832 33526 ft 487 kts 187°
2026-04-25 01:05 43.46348 -64.29211 33852 ft 486 kts 187°
2026-04-25 01:05 43.42976 -64.29588 34127 ft 486 kts 187°
2026-04-25 01:05 43.39615 -64.29963 34379 ft 485 kts 187°
2026-04-25 01:05 43.36242 -64.30338 34592 ft 485 kts 187°
2026-04-25 01:06 43.32882 -64.30713 34806 ft 485 kts 187°
2026-04-25 01:06 43.29559 -64.31083 35033 ft 485 kts 187°
2026-04-25 01:06 43.26175 -64.31459 35301 ft 483 kts 187°
2026-04-25 01:06 43.22826 -64.31831 35510 ft 483 kts 187°
2026-04-25 01:07 43.19576 -64.32192 35701 ft 483 kts 187°
2026-04-25 01:07 43.16275 -64.32558 35856 ft 483 kts 187°
2026-04-25 01:07 43.12922 -64.32930 36039 ft 483 kts 187°
2026-04-25 01:07 43.09574 -64.33302 36236 ft 483 kts 187°
2026-04-25 01:08 43.06225 -64.33673 36424 ft 482 kts 187°
2026-04-25 01:08 43.02883 -64.34042 36609 ft 482 kts 187°
2026-04-25 01:08 42.99539 -64.34410 36759 ft 482 kts 188°
2026-04-25 01:08 42.96195 -64.34777 36918 ft 482 kts 188°
2026-04-25 01:09 42.92849 -64.35145 37081 ft 482 kts 188°
2026-04-25 01:09 42.89507 -64.35512 37256 ft 482 kts 188°
2026-04-25 01:09 42.86158 -64.35879 37414 ft 482 kts 188°
2026-04-25 01:09 42.82823 -64.36244 37578 ft 481 kts 188°
2026-04-25 01:10 42.79486 -64.36609 37752 ft 480 kts 188°
2026-04-25 01:10 42.76156 -64.36972 37904 ft 480 kts 188°
2026-04-25 01:10 42.72818 -64.37337 37922 ft 480 kts 188°
2026-04-25 01:11 42.66168 -64.38062 37921 ft 479 kts 188°
2026-04-25 01:11 42.59602 -64.39231 37920 ft 474 kts 198°
2026-04-25 01:12 42.53468 -64.42096 37932 ft 466 kts 210°
2026-04-25 01:12 42.47804 -64.46288 37931 ft 463 kts 214°
2026-04-25 01:13 42.42184 -64.50558 37927 ft 463 kts 214°
2026-04-25 01:13 42.36561 -64.54800 37917 ft 463 kts 214°
2026-04-25 01:14 42.30926 -64.59038 37915 ft 463 kts 214°
2026-04-25 01:14 42.25305 -64.63258 37922 ft 462 kts 214°
2026-04-25 01:15 42.19676 -64.67476 37927 ft 462 kts 214°
2026-04-25 01:15 42.14055 -64.71680 37924 ft 462 kts 214°
2026-04-25 01:16 42.08443 -64.75865 37921 ft 458 kts 214°
2026-04-25 01:16 42.02869 -64.80017 37924 ft 458 kts 214°
2026-04-25 01:17 41.97281 -64.84154 37924 ft 460 kts 213°
2026-04-25 01:17 41.91285 -64.87365 37923 ft 469 kts 201°
2026-04-25 01:18 41.84809 -64.88957 37923 ft 478 kts 190°
2026-04-25 01:18 41.78186 -64.89795 37926 ft 478 kts 191°
2026-04-25 01:19 41.71610 -64.90659 37936 ft 478 kts 191°
2026-04-25 01:19 41.65011 -64.91535 37924 ft 475 kts 191°
2026-04-25 01:20 41.58424 -64.92408 37904 ft 476 kts 191°
2026-04-25 01:20 41.51843 -64.93275 37926 ft 475 kts 191°
2026-04-25 01:21 41.45264 -64.94142 37924 ft 475 kts 191°
2026-04-25 01:21 41.38682 -64.95007 37918 ft 475 kts 192°
2026-04-25 01:22 41.32105 -64.95868 37925 ft 475 kts 192°
2026-04-25 01:22 41.25520 -64.96730 37926 ft 475 kts 192°
2026-04-25 01:23 41.18941 -64.97588 37924 ft 475 kts 192°
2026-04-25 01:23 41.12410 -64.98439 37916 ft 475 kts 192°
2026-04-25 01:24 41.05822 -64.99296 37929 ft 475 kts 192°
2026-04-25 01:24 40.99234 -65.00150 37926 ft 476 kts 192°
2026-04-25 01:25 40.92646 -65.01003 37934 ft 476 kts 192°
2026-04-25 01:25 40.86045 -65.01856 37935 ft 477 kts 192°
2026-04-25 01:26 40.79455 -65.02705 37925 ft 473 kts 192°
2026-04-25 01:26 40.72921 -65.03545 37927 ft 472 kts 192°
2026-04-25 01:27 40.66413 -65.04383 37927 ft 473 kts 192°
2026-04-25 01:27 40.59880 -65.05220 37930 ft 470 kts 192°
2026-04-25 01:28 40.50107 -65.06471 37927 ft 471 kts 192°
2026-04-25 01:28 40.43576 -65.07305 37887 ft 471 kts 192°
2026-04-25 01:29 40.37086 -65.08127 37921 ft 467 kts 192°
2026-04-25 01:29 40.30608 -65.08954 37921 ft 468 kts 192°
2026-04-25 01:30 40.24122 -65.09777 37902 ft 468 kts 193°
2026-04-25 01:30 40.17653 -65.10595 37921 ft 467 kts 193°
2026-04-25 01:31 40.11175 -65.11415 37928 ft 467 kts 193°
2026-04-25 01:31 40.04708 -65.12231 37927 ft 467 kts 193°
2026-04-25 01:32 39.98224 -65.13047 37927 ft 468 kts 193°
2026-04-25 01:32 39.92844 -65.13723 37929 ft 468 kts 193°
2026-04-25 01:33 39.86357 -65.14536 37928 ft 468 kts 193°
2026-04-25 01:33 39.79903 -65.15340 37924 ft 464 kts 193°
2026-04-25 01:34 39.73473 -65.16146 37924 ft 465 kts 193°
2026-04-25 01:34 39.67042 -65.16949 37923 ft 465 kts 193°
2026-04-25 01:35 39.60613 -65.17748 37922 ft 463 kts 193°
2026-04-25 01:35 39.54199 -65.18546 37921 ft 463 kts 193°
2026-04-25 01:36 39.47775 -65.19344 37926 ft 464 kts 193°
2026-04-25 01:36 39.41396 -65.20132 37926 ft 462 kts 193°
2026-04-25 01:37 39.34997 -65.20922 37926 ft 462 kts 193°
2026-04-25 01:37 39.28559 -65.21718 37927 ft 462 kts 193°
2026-04-25 01:38 39.22206 -65.22499 37925 ft 460 kts 193°
2026-04-25 01:38 39.15916 -65.23273 37926 ft 463 kts 193°
2026-04-25 01:39 39.09487 -65.24062 37929 ft 461 kts 193°
2026-04-25 01:39 39.03112 -65.24839 37930 ft 459 kts 193°
2026-04-25 01:40 38.96755 -65.25618 37931 ft 459 kts 193°
2026-04-25 01:40 38.90393 -65.26395 37928 ft 459 kts 193°
2026-04-25 01:41 38.84033 -65.27170 37884 ft 458 kts 193°
2026-04-25 01:41 38.77710 -65.27938 37929 ft 456 kts 193°
2026-04-25 01:42 38.71375 -65.28709 37926 ft 457 kts 193°
2026-04-25 01:42 38.65093 -65.29470 37926 ft 457 kts 193°
2026-04-25 01:43 38.58778 -65.30234 37933 ft 456 kts 193°
2026-04-25 01:43 38.52444 -65.31002 37929 ft 457 kts 193°
2026-04-25 01:44 38.46110 -65.31764 37922 ft 457 kts 193°
2026-04-25 01:44 38.39785 -65.32524 37923 ft 455 kts 193°
2026-04-25 01:45 38.33480 -65.33281 37926 ft 456 kts 193°
2026-04-25 01:45 38.27151 -65.34041 37933 ft 457 kts 193°
2026-04-25 01:46 38.20810 -65.34799 37904 ft 456 kts 193°
2026-04-25 01:46 38.14509 -65.35549 37924 ft 454 kts 193°
2026-04-25 01:47 38.08219 -65.36301 37929 ft 455 kts 193°
2026-04-25 01:47 38.01960 -65.37046 37926 ft 454 kts 193°
2026-04-25 01:48 37.95668 -65.37794 37929 ft 455 kts 193°
2026-04-25 01:48 37.89359 -65.38542 37933 ft 455 kts 193°
2026-04-25 01:49 37.83060 -65.39288 37928 ft 455 kts 193°
2026-04-25 01:49 37.76761 -65.40031 37917 ft 454 kts 193°
2026-04-25 01:50 37.70465 -65.40775 37922 ft 454 kts 193°
2026-04-25 01:50 37.64165 -65.41518 37923 ft 455 kts 193°
2026-04-25 01:51 37.57867 -65.42258 37904 ft 454 kts 194°
2026-04-25 01:51 37.51607 -65.42990 37920 ft 454 kts 194°
2026-04-25 01:52 37.45289 -65.43730 37921 ft 455 kts 194°
2026-04-25 01:52 37.39052 -65.44460 37923 ft 455 kts 194°
2026-04-25 01:53 37.32820 -65.45185 37921 ft 452 kts 194°
2026-04-25 01:53 37.26558 -65.45916 37915 ft 453 kts 194°
2026-04-25 01:54 37.20283 -65.46648 37915 ft 453 kts 194°
2026-04-25 01:54 37.14021 -65.47374 37915 ft 449 kts 194°
2026-04-25 01:55 37.07820 -65.48092 37918 ft 448 kts 194°
2026-04-25 01:55 37.01606 -65.48816 37915 ft 448 kts 194°
2026-04-25 01:56 36.95399 -65.49534 37915 ft 448 kts 194°
2026-04-25 01:56 36.89199 -65.50248 37915 ft 447 kts 194°
2026-04-25 01:57 36.79904 -65.51321 37917 ft 447 kts 194°
2026-04-25 01:58 36.73703 -65.52034 37915 ft 447 kts 194°
2026-04-25 01:58 36.67504 -65.52745 37907 ft 447 kts 194°
2026-04-25 01:59 36.61313 -65.53455 37907 ft 447 kts 194°
2026-04-25 01:59 36.55112 -65.54165 37913 ft 448 kts 194°
2026-04-25 02:00 36.48954 -65.54868 37927 ft 446 kts 194°
2026-04-25 02:00 36.42792 -65.55570 37906 ft 445 kts 194°
2026-04-25 02:01 36.36614 -65.56275 37904 ft 445 kts 194°
2026-04-25 02:01 36.30441 -65.56977 37902 ft 445 kts 194°
2026-04-25 02:02 36.24296 -65.57672 37900 ft 442 kts 194°
2026-04-25 02:02 36.18166 -65.58369 37899 ft 443 kts 194°
2026-04-25 02:03 36.12037 -65.59063 37899 ft 442 kts 194°
2026-04-25 02:03 36.05900 -65.59756 37866 ft 441 kts 194°
2026-04-25 02:04 35.99805 -65.60442 37897 ft 440 kts 194°
2026-04-25 02:04 35.93705 -65.61132 37900 ft 440 kts 194°
2026-04-25 02:05 35.87596 -65.61822 37896 ft 443 kts 194°
2026-04-25 02:05 35.81455 -65.62512 37902 ft 443 kts 194°
2026-04-25 02:06 35.75322 -65.63197 37894 ft 443 kts 194°
2026-04-25 02:06 35.69288 -65.63874 37896 ft 445 kts 194°
2026-04-25 02:07 35.63139 -65.64559 37899 ft 442 kts 194°
2026-04-25 02:07 35.57046 -65.65237 37896 ft 438 kts 194°
2026-04-25 02:08 35.50961 -65.65918 37897 ft 440 kts 194°
2026-04-25 02:08 35.44862 -65.66598 37896 ft 439 kts 194°
2026-04-25 02:09 35.38774 -65.67275 37868 ft 437 kts 194°
2026-04-25 02:09 35.32734 -65.67943 37891 ft 435 kts 194°
2026-04-25 02:10 35.26658 -65.68450 37895 ft 442 kts 189°
2026-04-25 02:10 35.20445 -65.67840 37894 ft 454 kts 179°
2026-04-25 02:11 35.14217 -65.66508 37895 ft 453 kts 179°
2026-04-25 02:11 35.08018 -65.65211 37874 ft 451 kts 179°
2026-04-25 02:12 35.01834 -65.63931 37866 ft 450 kts 179°
2026-04-25 02:12 34.95651 -65.62657 37895 ft 453 kts 179°
2026-04-25 02:13 34.89468 -65.61381 37887 ft 453 kts 179°
2026-04-25 02:13 34.83265 -65.60100 37889 ft 452 kts 180°
2026-04-25 02:14 34.77058 -65.58821 37889 ft 452 kts 180°
2026-04-25 02:14 34.70860 -65.57547 37888 ft 452 kts 180°
2026-04-25 02:15 34.64655 -65.56274 37884 ft 453 kts 180°
2026-04-25 02:15 34.58434 -65.55001 37893 ft 453 kts 180°
2026-04-25 02:16 34.52244 -65.53735 37902 ft 454 kts 180°
2026-04-25 02:16 34.45978 -65.52454 37891 ft 453 kts 180°
2026-04-25 02:17 34.39767 -65.51187 37888 ft 453 kts 180°
2026-04-25 02:17 34.33552 -65.49923 37891 ft 453 kts 180°
2026-04-25 02:18 34.27374 -65.48666 37892 ft 453 kts 180°
2026-04-25 02:18 34.21157 -65.47404 37890 ft 453 kts 180°
2026-04-25 02:19 34.14949 -65.46145 37875 ft 452 kts 180°
2026-04-25 02:19 34.08744 -65.44890 37885 ft 452 kts 180°
2026-04-25 02:20 34.02546 -65.43637 37898 ft 452 kts 180°
2026-04-25 02:20 33.96339 -65.42385 37899 ft 452 kts 180°
2026-04-25 02:21 33.90142 -65.41136 37896 ft 450 kts 180°
2026-04-25 02:21 33.85013 -65.40103 37905 ft 450 kts 180°
2026-04-25 02:22 33.78835 -65.38863 37905 ft 450 kts 180°
2026-04-25 02:22 33.72659 -65.37624 37908 ft 450 kts 180°
2026-04-25 02:23 33.66494 -65.36401 37905 ft 448 kts 180°
2026-04-25 02:23 33.60347 -65.35193 37896 ft 447 kts 180°
2026-04-25 02:23 33.57280 -65.34590 37593 ft 446 kts 180°
2026-04-25 02:24 33.54207 -65.33988 36899 ft 449 kts 179°
2026-04-25 02:24 33.51103 -65.33382 35956 ft 456 kts 179°
2026-04-25 02:24 33.47941 -65.32767 34908 ft 465 kts 179°
2026-04-25 02:24 33.44720 -65.32139 33895 ft 472 kts 179°
2026-04-25 02:25 33.41464 -65.31501 32875 ft 476 kts 178°
2026-04-25 02:25 33.38199 -65.30858 31928 ft 477 kts 178°
2026-04-25 02:25 33.34912 -65.30213 30967 ft 480 kts 178°
2026-04-25 02:25 33.31611 -65.29566 30040 ft 482 kts 178°
2026-04-25 02:26 33.28296 -65.28917 28986 ft 483 kts 178°
2026-04-25 02:26 33.24985 -65.28268 28207 ft 479 kts 177°
2026-04-25 02:26 33.21724 -65.27629 27492 ft 474 kts 177°
2026-04-25 02:26 33.18483 -65.26994 26777 ft 470 kts 177°
2026-04-25 02:27 33.15269 -65.26369 26077 ft 465 kts 177°
2026-04-25 02:27 33.12092 -65.25750 25406 ft 461 kts 177°
2026-04-25 02:27 33.08938 -65.25054 24728 ft 462 kts 171°
2026-04-25 02:27 33.05914 -65.23702 24084 ft 468 kts 158°
2026-04-25 02:28 33.03199 -65.21646 23452 ft 472 kts 146°
2026-04-25 02:28 33.00839 -65.18922 22754 ft 473 kts 134°
2026-04-25 02:28 32.98750 -65.15928 22123 ft 468 kts 132°
2026-04-25 02:28 32.96695 -65.12950 21487 ft 462 kts 133°
2026-04-25 02:29 32.94610 -65.10063 20863 ft 457 kts 134°
2026-04-25 02:29 32.92498 -65.07263 20266 ft 451 kts 135°
2026-04-25 02:29 32.90380 -65.04530 19665 ft 447 kts 136°
2026-04-25 02:29 32.88270 -65.01843 19069 ft 442 kts 136°
2026-04-25 02:30 32.86182 -64.99198 18524 ft 436 kts 136°
2026-04-25 02:30 32.84111 -64.96576 17860 ft 433 kts 136°
2026-04-25 02:30 32.82056 -64.93978 17221 ft 429 kts 136°
2026-04-25 02:30 32.80024 -64.91407 16597 ft 424 kts 136°
2026-04-25 02:31 32.78011 -64.88861 15949 ft 421 kts 136°
2026-04-25 02:31 32.76020 -64.86344 15366 ft 416 kts 136°
2026-04-25 02:31 32.74042 -64.83846 14684 ft 415 kts 136°
2026-04-25 02:31 32.72082 -64.81371 14143 ft 410 kts 136°
2026-04-25 02:32 32.70131 -64.78910 13481 ft 408 kts 136°
2026-04-25 02:32 32.68190 -64.76463 12914 ft 403 kts 136°
2026-04-25 02:32 32.66284 -64.74061 12496 ft 395 kts 136°
2026-04-25 02:32 32.64458 -64.71757 12210 ft 384 kts 136°
2026-04-25 02:33 32.62641 -64.69469 11728 ft 379 kts 136°
2026-04-25 02:33 32.60823 -64.67186 11097 ft 381 kts 136°
2026-04-25 02:33 32.58990 -64.64886 10585 ft 377 kts 136°
2026-04-25 02:33 32.57215 -64.62658 10014 ft 377 kts 136°
2026-04-25 02:34 32.55413 -64.60398 9381 ft 377 kts 136°
2026-04-25 02:34 32.53617 -64.58146 8720 ft 376 kts 135°
2026-04-25 02:34 32.51825 -64.55899 8092 ft 375 kts 136°
2026-04-25 02:34 32.50034 -64.53654 7385 ft 376 kts 136°
2026-04-25 02:35 32.48229 -64.51390 6611 ft 379 kts 135°
2026-04-25 02:35 32.46454 -64.49061 5814 ft 382 kts 134°
2026-04-25 02:35 32.44677 -64.46684 4818 ft 389 kts 137°
2026-04-25 02:35 32.42522 -64.44776 3856 ft 386 kts 157°
2026-04-25 02:36 32.40035 -64.43858 3364 ft 366 kts 178°
2026-04-25 02:36 32.37600 -64.44007 3129 ft 337 kts 200°
2026-04-25 02:36 32.35566 -64.45108 2849 ft 312 kts 221°
2026-04-25 02:36 32.34237 -64.46964 2660 ft 285 kts 247°
2026-04-25 02:37 32.33733 -64.49120 2541 ft 264 kts 266°
2026-04-25 02:37 32.33737 -64.51245 2240 ft 256 kts 276°
2026-04-25 02:37 32.33978 -64.53334 1759 ft 256 kts 279°
2026-04-25 02:37 32.34297 -64.55357 1619 ft 243 kts 280°
2026-04-25 02:38 32.34610 -64.57266 1517 ft 228 kts 280°
2026-04-25 02:38 32.34907 -64.59034 1486 ft 210 kts 281°
2026-04-25 02:38 32.35180 -64.60638 1486 ft 185 kts 281°
2026-04-25 02:38 32.35441 -64.62077 1068 ft 177 kts 281°
2026-04-25 02:39 32.35691 -64.63490 631 ft 171 kts 280°
2026-04-25 02:39 32.35910 -64.64747 365 ft 145 kts 279°
2026-04-25 02:39 32.36070 -64.65856 118 ft 127 kts 277°
2026-04-25 02:39 32.36210 -64.66791 8 ft 106 kts 278°
2026-04-25 02:40 32.36339 -64.67524 3 ft 77 kts 281°
2026-04-25 02:40 32.36427 -64.68060 6 ft 59 kts 287°
2026-04-25 02:40 32.36513 -64.68490 6 ft 51 kts 278°
2026-04-25 02:40 32.36577 -64.68885 7 ft 47 kts 282°
2026-04-25 02:41 32.36587 -64.69250 4 ft 43 kts 247°
2026-04-25 02:41 32.36475 -64.69562 4 ft 40 kts 245°
2026-04-25 02:41 32.36372 -64.69858 4 ft 38 kts 249°
2026-04-25 02:41 32.36275 -64.70143 4 ft 27 kts 262°
2026-04-25 02:42 32.36290 -64.70232 4 ft 12 kts 265°
2026-04-25 02:42 32.36269 -64.70312 4 ft 0 kts 249°